Location: Innsbruck
(47.2657°N, 11.3914°E)
Time: 20:10:09
(UTC+01:00)

BEESAT 3 - Visible Passes

Search period start: 07 December 2021 00:00
Search period end: 17 December 2021 00:00
Orbit: 476 x 511 km, 64.9° (Epoch: 06 December)

Date Brightness Start Highest point End Pass type
(mag) Time Alt. Az. Time Alt. Az. Time Alt. Az.
07 Dec ? 18:24:08 10° S 18:27:02 36° SE 18:27:02 36° SE visible
08 Dec ? 18:01:37 10° S 18:05:04 34° ESE 18:05:37 32° E visible
08 Dec ? 19:38:56 10° WSW 19:40:12 18° W 19:40:12 18° W visible
09 Dec ? 17:39:08 10° S 17:42:28 30° ESE 17:44:07 21° ENE visible
09 Dec ? 19:16:10 10° WSW 19:18:41 28° WNW 19:18:41 28° WNW visible
10 Dec ? 17:16:40 10° S 17:19:52 26° ESE 17:22:31 13° ENE visible
10 Dec ? 18:53:24 10° WSW 18:56:55 35° NW 18:57:05 35° NW visible
11 Dec ? 16:54:13 10° S 16:57:15 23° ESE 17:00:20 10° ENE visible
11 Dec ? 18:30:39 10° WSW 18:34:14 39° NW 18:35:24 31° N visible
12 Dec ? 18:07:54 10° WSW 18:11:33 44° NW 18:13:40 22° NNE visible
13 Dec ? 17:45:09 10° SW 17:48:51 50° NW 17:51:51 15° NNE visible
13 Dec ? 19:25:35 10° NW 19:26:24 11° NW 19:26:24 11° NW visible
14 Dec ? 17:22:25 10° SW 17:26:09 57° NW 17:29:57 10° NNE visible
14 Dec ? 19:02:31 10° NW 19:04:10 12° NNW 19:04:31 12° NNW visible
15 Dec ? 16:59:41 10° SW 17:03:27 65° NW 17:07:18 10° NNE visible
15 Dec ? 18:39:29 10° WNW 18:41:24 13° NNW 18:42:37 12° N visible
16 Dec ? 18:16:29 10° WNW 18:18:37 14° NNW 18:20:39 10° N visible
